Location: Harmanec
(48.7939°N, 19.0798°E)
Time: 20:30:52
(UTC+00:00)

Daily predictions for brighter satellites

Satellite Brightness Start Highest point End
(mag) Time Altitude Azimuth Time Altitude Azimuth Time Altitude Azimuth
STARLINK-1225 4.5 17:49:41 10° WNW 17:53:41 46° N 17:57:43 10° ENE
Cosmos 2251 Rocket 3.6 17:50:08 10° SSW 17:55:31 86° ESE 18:00:56 10° NNE
ATLAS 2AS CENTAUR R/B 3.0 17:48:15 10° NW 17:55:58 69° NE 18:03:02 10° SE
STARLINK-1230 4.4 17:54:42 10° WNW 17:58:42 46° N 18:02:43 10° ENE
Cosmos 1437 2.5 17:55:51 10° N 17:58:52 67° ENE 18:01:51 10° SSE
SL-08 RB Rocket 4.2 17:55:28 10° SE 17:59:46 43° ENE 18:04:09 10° N
Cosmos 1908 4.1 17:58:37 10° SSE 18:02:01 30° E 18:05:27 10° NNE
CZ-4 R/B 4.1 17:59:19 10° SW 18:02:20 22° W 18:05:23 10° NW
CZ-4C R/B 4.3 17:57:37 10° NW 18:02:35 23° N 18:08:13 10° ENE
Cosmos 2263 4.4 17:57:03 10° NNW 18:02:40 75° WSW 18:08:15 10° SSE
STARLINK-1243 4.4 17:59:41 10° WNW 18:03:42 46° N 18:07:43 10° ENE
Cosmos 1943 3.2 17:59:02 10° SSW 18:04:38 70° ESE 18:10:20 10° NNE
SeaSat 1 2.7 18:00:06 10° NNE 18:05:03 80° WNW 18:09:59 10° SW
Ariane Rocket 3.1 18:02:45 10° SSE 18:07:49 86° WSW 18:12:55 10° NNW
STARLINK-1236 4.4 18:04:40 10° WNW 18:08:42 47° N 18:12:43 10° E
MONITOR-E 3.7 18:06:35 10° SSE 18:09:12 66° ENE 18:11:50 10° N
IRS-1A Rocket 4.5 18:05:40 10° SSE 18:11:24 86° WSW 18:17:18 10° NNW
Cosmos 1140 Rocket 4.3 18:07:18 10° SSE 18:11:37 27° E 18:15:55 10° NE
IRIDIUM 104 4.3 18:06:39 10° N 18:11:54 85° E 18:17:08 10° S
Cosmos 1656 Rocket 3.7 18:06:27 10° NNW 18:12:09 89° ENE 18:17:45 10° SSE
Cosmos 1953 2.5 18:08:54 10° SSW 18:12:52 76° W 18:16:53 10° N
STARLINK-1228 3.1 18:10:08 10° WNW 18:13:01 56° NNE 18:15:31 13° E
Cosmos 2184 Rocket 4.0 18:08:15 10° N 18:14:36 82° E 18:20:49 10° S
Meteor 1-11 4.5 18:10:00 10° N 18:15:39 54° ENE 18:21:13 10° SSE
COSMOS 2455 3.3 18:10:53 10° NNW 18:16:43 47° NE 18:22:02 12° ESE
Cosmos 1726 2.1 18:13:54 10° S 18:17:38 89° ENE 18:21:24 10° N
STARLINK-1269 4.3 18:14:39 10° WNW 18:18:41 48° N 18:22:41 10° E
Meteor 2-10 4.2 18:14:18 10° S 18:19:47 86° E 18:25:29 10° NNE
CZ-2C R/B 3.4 18:15:19 10° NE 18:19:48 29° E 18:24:16 10° SSE
MetOp-A 4.3 18:15:30 10° SE 18:20:42 54° ENE 18:25:55 10° N
IRIDIUM 114 4.5 18:15:49 10° N 18:21:03 81° W 18:26:16 10° S
Cosmos 2058 Rocket 3.7 18:17:41 10° SSE 18:21:46 35° E 18:25:54 10° NNE
STARLINK-1200 4.3 18:19:39 10° WNW 18:23:41 49° N 18:27:28 11° E
Cosmos 614 Rocket 4.1 18:18:53 10° S 18:23:57 54° ESE 18:29:03 10° NNE
ARGOS 3.3 18:21:29 10° SSE 18:26:53 82° WSW 18:32:18 10° NNW
STARLINK-1192 4.3 18:24:39 10° WNW 18:28:42 50° N 18:32:16 13° E
Cosmos 1726 Rocket 3.6 18:25:27 10° S 18:29:48 63° E 18:34:13 10° NNE
FREGAT/IRIS 3.4 18:27:42 10° S 18:30:20 46° W 18:32:59 10° NNW
SL-24 R/B 4.0 18:28:36 10° NNE 18:32:37 49° E 18:36:15 10° S
STARLINK-1244 4.2 18:29:37 10° WNW 18:33:41 51° N 18:37:02 14° E
Meteor 2-17 Rocket 4.4 18:27:32 10° N 18:33:43 74° E 18:39:51 10° SSE
Resurs 01 Rocket 2.1 18:30:56 14° SE 18:34:20 41° ENE 18:38:30 10° N
Cosmos 1825 Rocket 4.0 18:31:20 10° NNW 18:35:41 63° W 18:39:58 10° S
Nadezhda 1 Rocket 4.0 18:30:06 10° S 18:36:27 71° E 18:42:46 10° NNE
ERBS 3.8 18:34:08 10° NW 18:37:09 29° NNE 18:39:24 15° ENE
Cosmos 2154 Rocket 4.0 18:30:50 10° N 18:37:13 79° E 18:43:33 10° SSE
ATLAS CENTAUR R/B 3.8 18:36:00 10° N 18:37:24 11° NNE 18:38:47 10° NE
APEX 4.4 18:31:39 10° NNW 18:38:19 86° WSW 18:43:26 12° SSE
STARLINK-1138 4.2 18:34:37 10° WNW 18:38:41 52° N 18:41:50 16° E
USA 186 3.0 18:35:35 10° S 18:38:46 42° W 18:41:48 10° NNW
Cosmos 921 Rocket 3.0 18:37:55 10° NNW 18:42:04 57° ENE 18:44:56 19° SE
STARLINK-1143 4.1 18:39:36 10° WNW 18:43:40 53° NNE 18:46:36 18° E
SL-24 R/B - RUBIN 2 4.3 18:39:33 10° SSW 18:45:03 60° ESE 18:51:17 10° NE
Cosmos 407 Rocket 3.4 18:40:09 10° S 18:45:15 68° ESE 18:50:22 10° NNE
STARLINK-1234 2.7 18:43:13 10° WNW 18:46:17 86° NNE 18:47:39 30° ESE
STARLINK-1233 3.0 18:43:10 10° WNW 18:46:18 70° NNE 18:47:47 28° E
Cosmos 676 Rocket 4.5 18:41:35 10° S 18:46:25 37° ESE 18:51:14 10° NE
STARLINK-1212 2.9 18:43:37 10° WNW 18:46:45 71° NNE 18:48:13 28° E
Cosmos 1980 Rocket 4.3 18:44:13 10° N 18:46:46 13° NNE 18:49:19 10° ENE
STARLINK-1105 2.9 18:44:04 10° WNW 18:47:12 71° NNE 18:48:40 29° E
STARLINK-1209 2.7 18:44:24 10° WNW 18:47:28 90° SSW 18:48:45 31° ESE
STARLINK-1206 2.9 18:44:33 10° WNW 18:47:40 71° NNE 18:49:04 29° E
STARLINK-1247 2.9 18:45:00 10° WNW 18:48:07 72° NNE 18:49:30 30° E
STARLINK-1227 2.9 18:45:24 10° WNW 18:48:32 72° NNE 18:49:57 30° ESE
Cosmos 2228 3.3 18:44:17 10° SSW 18:48:34 72° WNW 18:52:56 10° N
STARLINK-1241 4.1 18:44:37 10° WNW 18:48:43 55° NNE 18:51:25 20° E
STARLINK-1218 2.9 18:45:54 10° WNW 18:49:02 73° NNE 18:50:22 30° ESE
STARLINK-1226 2.9 18:46:21 10° WNW 18:49:28 73° NNE 18:50:49 31° ESE
STARLINK-1254 2.9 18:46:46 10° WNW 18:49:54 74° NNE 18:51:15 31° ESE
SPOT 3 Rocket 3.6 18:44:41 10° SSE 18:49:55 85° WSW 18:55:09 10° NNW
STARLINK-1215 2.9 18:47:15 10° WNW 18:50:23 74° NNE 18:51:40 32° ESE
STARLINK-1231 2.9 18:47:41 10° WNW 18:50:49 74° NNE 18:52:06 32° ESE
STARLINK-1232 2.9 18:48:36 10° WNW 18:51:44 75° NNE 18:52:59 33° ESE
STARLINK-1217 2.9 18:49:03 10° WNW 18:52:11 76° NNE 18:53:24 33° ESE
Cosmos 1461 3.2 18:47:55 10° NW 18:52:27 79° SW 18:55:36 21° SSE
STARLINK-1208 2.9 18:49:27 10° WNW 18:52:37 76° NNE 18:53:51 33° ESE
STARLINK-1229 2.8 18:49:56 10° WNW 18:53:04 77° NNE 18:54:16 34° ESE
STARLINK-1271 2.8 18:50:23 10° WNW 18:53:32 77° NNE 18:54:43 35° ESE
STARLINK-1239 4.0 18:49:34 10° WNW 18:53:40 56° NNE 18:56:09 22° E
Aureole 1 Rocket 4.0 18:46:21 10° SSW 18:53:51 83° ESE 18:59:41 10° NNE
STARLINK-1270 2.8 18:50:51 10° WNW 18:53:59 78° NNE 18:55:09 35° ESE
STARLINK-1154 2.8 18:51:18 10° WNW 18:54:26 78° NNE 18:55:34 36° ESE
STARLINK-1197 2.8 18:52:12 10° WNW 18:55:20 79° NNE 18:56:27 37° ESE
STARLINK-1189 2.8 18:52:39 10° WNW 18:55:47 80° NNE 18:56:52 37° ESE
SPOT 5 4.4 18:55:01 15° ENE 18:56:01 16° ENE 18:58:35 10° NNE
STARLINK-1198 2.8 18:53:06 10° WNW 18:56:14 80° NNE 18:57:18 37° ESE
Cosmos 1892 4.2 18:53:32 10° NNE 18:56:32 21° ENE 18:57:00 20° E
SJ-6B 4.0 18:52:40 10° S 18:56:36 44° W 19:00:35 10° NNW
STARLINK-1188 2.8 18:53:33 10° WNW 18:56:41 81° NNE 18:57:44 38° ESE
STARLINK-1235 2.8 18:54:12 10° WNW 18:57:22 85° SSW 18:58:24 39° ESE
Cosmos 1953 Rocket 4.3 18:52:59 10° NNW 18:57:23 56° W 19:01:46 10° S
STARLINK-1187 2.8 18:54:38 10° WNW 18:57:48 89° NNE 18:58:50 39° ESE
STARLINK-1199 2.8 18:55:29 10° WNW 18:58:38 83° NNE 18:59:39 40° ESE
STARLINK-29 3.4 18:55:39 10° SSW 18:58:39 37° SE 18:58:46 37° SE
STARLINK-1240 4.0 18:54:34 10° WNW 18:58:40 58° NNE 19:00:57 24° E
STARLINK-1191 2.8 18:55:57 10° WNW 18:59:06 83° NNE 19:00:06 40° ESE
STARLINK-1210 2.8 18:56:23 10° WNW 18:59:33 84° NNE 19:00:31 41° ESE
Cosmos 1606 Rocket 4.4 18:55:18 10° SSW 18:59:38 53° WNW 19:04:02 10° N
STARLINK-1221 2.8 18:56:51 10° WNW 19:00:01 84° NNE 19:00:58 42° ESE
STARLINK-1219 2.8 18:57:17 10° WNW 19:00:27 85° NNE 19:01:23 42° ESE
ATLAS 5 CENTAUR R/B 1.4 18:56:25 10° SSW 19:00:32 63° SE 19:05:11 10° NE
STARLINK-60 2.8 18:57:20 10° WSW 19:00:36 75° SSE 19:02:13 27° ENE
STARLINK-1222 2.8 18:57:45 10° WNW 19:00:55 85° NNE 19:01:49 43° ESE
STARLINK-1211 2.8 18:58:13 10° WNW 19:01:22 86° NNE 19:02:15 43° ESE
STARLINK-1214 2.8 18:58:38 10° WNW 19:01:48 86° NNE 19:02:41 44° ESE
STARLINK-1245 2.8 18:59:08 10° WNW 19:02:17 87° NNE 19:03:07 45° ESE
STARLINK-1238 2.8 18:59:33 10° WNW 19:02:43 87° NE 19:03:34 45° ESE
STARLINK-1205 2.8 19:00:30 10° WNW 19:03:38 88° NNE 19:04:25 47° ESE
STARLINK-1216 3.9 18:59:34 10° WNW 19:03:41 60° NNE 19:05:45 27° E
STARLINK-1204 2.7 19:00:56 10° WNW 19:04:04 89° NE 19:04:50 48° ESE
Terra 3.6 19:03:34 15° ENE 19:04:45 16° ENE 19:07:38 10° NNE
Cosmos 1818 4.3 19:00:28 10° SW 19:05:48 56° NW 19:11:12 10° NNE
Cosmos 1825 4.5 19:05:06 10° NE 19:06:15 12° ENE 19:06:15 12° ENE
STARLINK-1237 3.9 19:04:31 10° WNW 19:08:39 63° NNE 19:10:31 30° E
Cosmos 1954 Rocket 4.0 19:04:20 10° S 19:09:26 55° ESE 19:14:32 10° NNE
Cosmos 1023 Rocket 4.4 19:05:35 10° SSW 19:10:46 84° ESE 19:15:56 10° NNE
Abrixas rocket 2.1 19:08:24 10° W 19:11:19 54° SSW 19:11:30 53° S
STARLINK-1202 3.8 19:09:32 10° WNW 19:13:39 65° NNE 19:15:19 34° E
Cosmos 2058 3.4 19:09:58 10° N 19:13:51 39° ENE 19:14:34 36° E
SPOT 1/Viking Rocket 4.2 19:12:00 28° ESE 19:13:55 38° ENE 19:18:45 10° N
NOSS 3-4 (A) 4.4 19:07:45 10° NW 19:14:34 55° WSW 19:20:34 16° SSE
NOSS 3-4 (C) 4.4 19:07:52 10° NW 19:14:40 56° WSW 19:20:39 17° SSE
RESURS DK-1 3.9 19:13:07 10° N 19:16:26 22° NE 19:17:24 20° ENE
In-Cosmos 22 Rocket 4.4 19:11:59 10° N 19:17:46 59° ENE 19:20:35 30° SE
Cosmos 1300 2.5 19:17:23 28° S 19:19:17 75° E 19:23:07 10° NNE
FALCON 9 DEB 3.3 19:17:10 10° SW 19:20:16 50° S 19:20:16 50° S
Cosmos 1076 Rocket 3.8 19:17:12 10° N 19:21:22 49° ENE 19:22:14 42° ESE
SL-4 R/B 1.7 19:18:03 10° W 19:21:27 70° NNW 19:22:39 37° ENE
MOS 1 Rocket 3.7 19:16:40 10° NNE 19:22:04 83° WNW 19:27:31 10° SSW
STARLINK-1246 3.7 19:19:31 10° WNW 19:23:40 71° NNE 19:24:53 43° E
Cosmos 1340 Rocket 3.6 19:20:05 10° SSW 19:24:03 53° WNW 19:28:01 10° N
STARLINK-1203 3.7 19:20:08 10° WNW 19:24:21 75° NNE 19:25:34 44° E
STARLINK-1201 2.9 19:22:04 10° WNW 19:25:19 70° SSW 19:25:27 69° S
H-2A R/B 4.3 19:22:14 10° SW 19:26:16 23° W 19:30:14 10° NW
STARLINK-67 4.5 19:25:35 10° W 19:27:10 22° WSW 19:27:10 22° WSW
STARLINK-1224 3.6 19:24:28 10° WNW 19:28:38 74° NNE 19:29:39 49° E
Cosmos 1763 Rocket 3.9 19:24:00 10° NNW 19:29:03 47° ENE 19:30:27 37° ESE
STARLINK-1225 3.6 19:29:28 10° WNW 19:33:38 78° NNE 19:34:27 55° E
MetOp-B 4.1 19:33:01 31° SSE 19:35:41 88° WSW 19:41:05 10° NNW
SAR-Lupe-2 3.4 19:32:50 10° NNE 19:36:27 83° ESE 19:36:47 72° S
COSMOS 2406 4.1 19:39:02 30° E 19:39:02 30° E 19:43:02 10° NE
Cosmos 540 Rocket 4.5 19:33:55 10° N 19:38:31 31° NE 19:39:30 29° ENE
STARLINK-1230 3.5 19:34:27 10° WNW 19:38:37 82° NNE 19:39:14 63° E
Cosmos 1174 4.1 19:35:09 10° NNW 19:39:12 71° NE 19:40:09 53° ESE
USA 234 3.3 19:34:07 10° ENE 19:40:30 52° SE 19:46:51 10° SSW
Meteor 2-10 Rocket 4.4 19:42:14 32° E 19:42:14 32° E 19:46:39 10° NNE
Cosmos-2242 4.4 19:44:33 25° ENE 19:44:33 25° ENE 19:47:03 10° NNE
STARLINK-1243 3.5 19:39:26 10° WNW 19:43:36 86° NNE 19:44:01 71° ESE
Iridium 4 Rocket 2.8 19:40:25 10° N 19:44:39 72° E 19:44:57 68° ESE
ATLAS 2AS CENTAUR R/B 4.0 19:39:53 10° NW 19:46:27 34° WSW 19:51:22 15° S
STARLINK-1236 3.4 19:44:24 10° WNW 19:48:34 90° SE 19:48:47 80° ESE
STPSAT 2 (USA 217) 4.4 19:48:49 51° S 19:49:52 77° ESE 19:54:23 10° NNE
USA 32 4.2 19:45:01 10° N 19:50:08 50° E 19:50:42 48° E
CZ-4C R/B 3.6 19:46:33 10° NW 19:52:56 41° NNE 19:56:49 25° E
Cosmos 1140 Rocket 4.4 19:48:09 10° SW 19:53:09 47° WNW 19:58:11 10° NNE
Cosmos 2369 4.3 19:51:40 10° NNW 19:57:04 43° NE 19:58:09 39° E
STARLINK-1269 3.6 19:54:21 10° WNW 19:58:20 78° WSW 19:58:20 78° WSW
Meteor 2-1 Rocket 4.2 19:56:24 39° S 19:58:43 77° E 20:04:40 10° NNE
Spot 2 Rocket 3.7 19:56:53 39° S 19:58:43 65° WSW 20:03:49 10° NNW
Cosmos 1850 Rocket 3.9 19:59:22 60° ESE 19:59:28 61° ESE 20:04:35 10° NNE
Landsat 7 3.8 19:58:58 59° S 19:59:52 82° WSW 20:04:40 10° NNW
CZ-2C R/B 3.6 19:55:22 10° N 20:00:16 44° WNW 20:05:10 10° SW
COSMOS 2455 3.8 19:57:02 10° NW 20:02:36 40° WSW 20:05:11 27° SSW
Cosmos 1697 Rocket 3.1 19:57:36 10° NNW 20:03:06 48° NE 20:04:03 44° E
Cosmos 1408 3.6 19:59:43 10° N 20:02:18 40° NNE 20:02:18 40° NNE
STARLINK-1200 3.7 19:59:20 10° WNW 20:03:07 70° WSW 20:03:07 70° WSW
CARTOSAT-1 3.6 20:06:16 66° NE 20:06:16 66° NE 20:10:19 10° N
Cosmos 841 Rocket 3.7 20:01:10 10° NNW 20:06:22 54° ENE 20:06:47 53° E
IGS 5A 3.5 20:06:53 68° WSW 20:07:00 68° WSW 20:11:10 10° NNW
STARLINK-1192 3.9 20:04:19 10° WNW 20:07:54 61° W 20:07:54 61° W
Cosmos 1356 Rocket 4.3 20:10:36 40° NE 20:10:36 40° NE 20:13:31 10° NNE
Cosmos 2218 Rocket 4.3 20:03:13 10° NNW 20:09:21 63° W 20:12:18 32° SSW
Resurs 01 Rocket 3.6 20:08:30 15° SW 20:10:59 24° W 20:14:35 10° NW
Okean 3 Rocket 3.9 20:08:50 10° N 20:12:40 57° NE 20:12:40 57° NE
STARLINK-1244 4.1 20:09:18 10° WNW 20:12:41 54° W 20:12:41 54° W
ERBS 3.9 20:10:20 10° WNW 20:12:22 33° WNW 20:12:22 33° WNW
Mayak 1.1 20:10:37 10° NE 20:11:12 13° NE 20:11:12 13° NE
BREEZE-M DEB (TANK) 4.4 20:14:34 10° W 20:15:11 15° W 20:15:11 15° W
Cosmos 468 Rocket 4.1 20:12:12 10° NNW 20:17:19 63° WSW 20:18:01 56° SSW
ATLAS CENTAUR R/B 2.5 20:13:48 10° NNW 20:16:45 33° NNE 20:16:45 33° NNE
STARLINK-1138 4.4 20:14:17 10° WNW 20:17:28 48° W 20:17:28 48° W
Cosmos 1766 Rocket 4.1 20:14:06 10° N 20:17:48 52° NE 20:17:48 52° NE
SL-16 R/B 4.1 20:16:39 10° N 20:20:27 18° NE 20:22:22 15° ENE
Cosmos 1570 Rocket 3.9 20:16:14 10° NNW 20:21:39 84° ENE 20:21:55 79° ESE
ERS-1 Rocket 3.0 20:27:20 67° SW 20:27:40 69° WSW 20:32:42 10° NNW
Cosmos 1455 3.7 20:30:11 33° N 20:30:11 33° N 20:32:23 10° N
Meteor 2-3 Rocket 4.1 20:23:12 10° N 20:28:44 49° ENE 20:28:44 49° ENE
Cosmos 2322 Rocket 4.2 20:25:12 10° N 20:28:54 17° NE 20:30:46 15° ENE
Cosmos 1656 3.7 20:24:46 10° NNW 20:30:27 71° WSW 20:30:56 67° SSW
Cosmos 1980 Rocket 2.7 20:26:55 10° NNW 20:32:19 45° NE 20:32:34 45° ENE
Cosmos 1892 4.1 20:28:46 10° NNW 20:32:00 34° W 20:32:00 34° W
SPOT 5 3.0 20:34:13 60° NW 20:34:13 60° NW 20:37:57 10° NNW
Terra 2.0 20:42:27 68° NW 20:42:27 68° NW 20:46:41 10° NNW
Cosmos 1825 3.8 20:38:47 10° NNW 20:41:04 34° NNW 20:41:04 34° NNW
Cosmos 2344 4.5 20:34:06 10° NW 20:43:11 66° NE 20:48:33 37° ESE
ATLAS 5 CENTAUR R/B 3.7 20:41:45 10° W 20:45:34 28° NNW 20:49:53 10° NNE
Cosmos 2151 4.2 20:46:43 10° NNW 20:49:51 39° WNW 20:49:51 39° WNW
Nadezhda 3 Rocket 3.9 20:50:21 73° SSW 20:51:01 86° WNW 20:57:20 10° N
Cosmos 2360 4.2 20:47:24 10° NNW 20:52:50 75° NNE 20:52:50 75° NNE
RESURS DK-1 3.9 20:50:42 10° NW 20:53:17 34° WNW 20:53:17 34° WNW
Cosmos 1535 Rocket 4.4 20:49:30 10° N 20:55:36 75° ENE 20:55:36 75° ENE
Cosmos 2278 3.7 20:53:44 10° NNW 20:58:59 75° N 20:58:59 75° N
Cosmos 2082 Rocket 3.4 21:04:00 31° NE 21:04:00 31° NE 21:07:05 10° NE
Cosmos 1833 Rocket 3.1 21:13:43 58° NNE 21:13:43 58° NNE 21:18:14 10° NNE
BREEZE M DEB (TANK) 4.2 21:14:31 10° W 21:19:33 88° N 21:39:31 10° E
Cosmos 540 Rocket 4.5 21:15:23 10° NW 21:19:20 40° WNW 21:19:20 40° WNW
COSMOS 2406 4.0 21:21:00 43° W 21:22:08 49° NW 21:27:42 10° NNE
USA 234 3.5 21:17:11 10° NE 21:23:40 67° NNW 21:30:08 10° WSW
Cosmos 1934 Rocket 4.1 21:18:37 10° NNW 21:24:37 68° W 21:24:37 68° W
Cosmos 1605 Rocket 4.1 21:33:08 10° N 21:38:36 70° NW 21:38:36 70° NW
CZ-4C R/B 2.9 21:34:57 10° NW 21:41:59 74° WSW 21:41:59 74° WSW
Cosmos 1697 Rocket 4.1 21:41:53 10° NW 21:45:47 30° W 21:45:47 30° W
Mayak 0.9 21:45:47 10° N 21:47:46 24° NNW 21:47:46 24° NNW
SL-16 R/B 2.9 21:59:57 10° NNW 22:04:14 50° N 22:04:14 50° N
Cosmos 2360 Rocket 3.3 22:03:51 10° NNW 22:08:30 37° NE 22:08:30 37° NE
Cosmos 2322 Rocket 3.0 22:08:25 10° NNW 22:12:34 48° N 22:12:34 48° N
Cosmos 1980 Rocket 3.7 22:11:10 10° NW 22:14:20 27° WNW 22:14:20 27° WNW
Cosmos 2333 Rocket 4.0 22:19:29 10° N 22:24:02 24° NE 22:25:05 23° ENE
Cosmos 2061 Rocket 4.4 22:26:52 10° N 22:32:00 59° NNE 22:32:00 59° NNE
Cosmos 1607 4.4 22:38:22 56° N 22:38:22 56° N 22:43:45 10° NE
Cosmos 2082 Rocket 3.6 22:45:47 32° NW 22:45:57 32° NW 22:51:02 10° NNE
SL-16 R/B 4.2 22:46:28 21° E 22:48:14 24° NE 22:53:04 10° N
Cosmos 2233 Rocket 4.5 22:54:08 10° N 22:59:27 56° NE 22:59:27 56° NE
USA 234 4.2 23:00:03 10° ENE 23:06:10 44° N 23:12:17 10° WNW
Cosmos 2219 Rocket 3.3 23:02:20 10° NNW 23:07:20 38° NE 23:07:20 38° NE
Cosmos 1725 Rocket 4.4 23:01:31 10° N 23:06:34 59° NNW 23:06:34 59° NNW
Cosmos 2123 Rocket 4.3 23:19:41 60° NNW 23:19:41 60° NNW 23:24:44 10° N
Cosmos 2322 4.5 23:21:27 10° NNW 23:25:36 48° NNW 23:25:36 48° NNW
COSMOS 2428 3.5 23:23:04 10° NNW 23:28:04 49° NE 23:28:04 49° NE
SJ 16-02 3.7 23:37:59 20° NE 23:37:59 20° NE 23:39:38 10° NE
Resurs 1-4 Rocket 3.7 23:34:13 10° NE 23:37:53 27° ENE 23:37:53 27° ENE
SL-16 R/B 4.4 23:45:01 10° NW 23:46:05 14° WNW 23:46:05 14° WNW
Cosmos 2360 Rocket 3.8 23:47:52 10° NW 23:50:15 24° NW 23:50:15 24° NW
